"Pseudo-MPEC" for P22moSj

Created 2026 Mar 10 3:35:23 UT using Find_Orb

Click here for an explanation of pseudo-MPECs

 
 Astrometry: 
     P22moSj 1C2026 03 08.17447209 24 46.300+16 36 50.10   ~3A3Z       VNEOCPG96
     P22moSj 1C2026 03 08.18009509 24 43.693+16 37 28.16   ~3A3Z 20.28GVNEOCPG96
     P22moSj*0C2026 03 09.24445909 17 31.887+18 35 53.18   ~398Z 21.27wXNEOCPF52
     P22moSj 0C2026 03 09.25667609 17 26.482+18 37 14.20   ~398Z 21.05wXNEOCPF52
     P22moSj 0C2026 03 09.26847709 17 21.235+18 38 32.80   ~398Z 21.34wXNEOCPF52
     P22moSj 0C2026 03 09.40621109 16 19.105+18 53 34.20   ~39NZ 20.90GVNEOCPF51
     P22moSj 0C2026 03 09.40685609 16 18.749+18 53 39.26   ~39NZx21.56GVNEOCPF51
     P22moSj |C2026 03 10.08270009 11 50.680+20 07 24.30   ~3A35 21.2 GVNEOCP807
     P22moSj |C2026 03 10.09446009 11 45.480+20 08 39.10   ~3A35 21.0 GVNEOCP807
     P22moSj |C2026 03 10.10622009 11 40.230+20 09 53.10   ~3A35 21.3 GVNEOCP807

Station data:
(807) Cerro Tololo Observatory, La Serena  (S30.169133 W70.805900)  Chile.
   Observer R. Holmes. 0.61-m f/6.5 astrograph + CCD.
(F51) Pan-STARRS 1, Haleakala  (N20.707234 W156.255910)  US/Hawaii.
   Observers J. Herman, T. Lowe, P. Minguez, A. Schultz, I. Smith. Measurers
   K. Chambers, T. de Boer, J. Fairlamb, H. Gao, M. Huber, C.-C. Lin, E.
   Magnier, Y. Ramanjooloo, R. Wainscoat, R. Weryk. 1.8-m Ritchey-Chrétien +
   CCD.
(F52) Pan-STARRS 2, Haleakala  (N20.707382 W156.255910)  US/Hawaii.
   Observers J. Herman, T. Lowe, P. Minguez, A. Schultz, I. Smith. Measurers
   K. Chambers, T. de Boer, J. Fairlamb, H. Gao, M. Huber, C.-C. Lin, E.
   Magnier, Y. Ramanjooloo, R. Wainscoat, R. Weryk. 1.8-m Ritchey-Chrétien +
   CCD.
(G96) Mt. Lemmon Survey  (N32.442729 W110.788720)  US/Arizona.  Observer E.
   J. Christensen. Measurers T. Beuden, V. F. Carvajal, D. Fay, J. B.
   Fazekas, D. C. Fuls, A. R. Gibbs, A. D. Grauer, H. Gröller, J. K. Hogan,
   R. A. Kowalski, S. M. Larson, G. J. Leonard, D. Rankin, R. L. Seaman, F.
   C. Shelly, K. W. Wierzchoś. 1.5-m reflector + 10K CCD.

Orbital elements:  P22moSj
   Perihelion 2026 Jul 15.744788 +/- 0.12 TT = 17:52:29.6 (JD 2461237.244788)
Epoch 2026 Mar 10.0 TT = JDT 2461109.5   Earth MOID: 0.0455   Ve: 0.0295
M 201.751508795 +/- 0.09            (J2000 ecliptic)             AutoNEOCP
n   1.238786285 +/- 0.000696        Peri.  168.510882 +/- 0.056
a   0.858628151 +/- 0.000322        Node   164.447982 +/- 0.0058
e   0.24243762 +/- 0.000775         Incl.    6.690487 +/- 0.027
P   0.796/290.602d         H 25.31  G  0.15   U  7.9
q 0.650464378 +/- 0.000902    Q 1.066791923 +/- 0.000307
9 of 10 observations 2026 Mar. 8-10 (46.4 hr); mean residual 0".27
Residuals in arcseconds: 
260308 G96  .40+  .13+    260309 F52  .10+  .18-    260310 807  .10+  .04+    
260308 G96  .64-  .28-    260309 F51  .04-  .20+    260310 807  .26-  .55-    
260309 F52  .00   .24+    260309 F51( .97-  1.1+)   
260309 F52  .06+  .24-    260310 807  .18-  .05+    

Ephemerides (geocentric):
Date (UTC) HH   RA             Dec           delta  r     elong  mag " sig PA
---- --------  ------------   ------------  ------ ------ -----  --- --------
2026 03 10 04  09 11 15.723   +20 14 47.80  .07704 1.0569 144.8 21.2 .313 162
2026 03 10 05  09 10 59.084   +20 19 10.33  .07709 1.0569 144.6 21.3 .338 161
2026 03 10 06  09 10 42.456   +20 23 32.41  .07713 1.0568 144.5 21.3 .363 159
2026 03 10 07  09 10 25.840   +20 27 54.04  .07718 1.0568 144.4 21.3 .389 158
2026 03 10 08  09 10 09.237   +20 32 15.22  .07722 1.0567 144.2 21.3 .415 157
2026 03 10 09  09 09 52.645   +20 36 35.94  .07727 1.0567 144.1 21.3 .442 156
2026 03 10 10  09 09 36.066   +20 40 56.22  .07731 1.0566 144.0 21.3 .470 155
2026 03 10 11  09 09 19.499   +20 45 16.03  .07736 1.0566 143.9 21.3 .499 155
2026 03 10 12  09 09 02.945   +20 49 35.39  .07740 1.0565 143.7 21.3 .528 154
2026 03 10 13  09 08 46.403   +20 53 54.29  .07745 1.0565 143.6 21.3 .558 153
2026 03 10 14  09 08 29.874   +20 58 12.73  .07749 1.0564 143.5 21.3 .588 153
2026 03 10 15  09 08 13.358   +21 02 30.71  .07754 1.0564 143.3 21.3 .620 152
2026 03 10 16  09 07 56.854   +21 06 48.23  .07759 1.0563 143.2 21.3 .651 151
2026 03 10 17  09 07 40.363   +21 11 05.28  .07764 1.0563 143.1 21.3 .684 151
2026 03 10 18  09 07 23.886   +21 15 21.87  .07768 1.0562 143.0 21.3 .716 150
2026 03 10 19  09 07 07.421   +21 19 37.99  .07773 1.0562 142.8 21.3 .750 150
2026 03 10 20  09 06 50.969   +21 23 53.65  .07778 1.0562 142.7 21.3 .784 150
2026 03 10 21  09 06 34.531   +21 28 08.84  .07783 1.0561 142.6 21.3 .819 149
2026 03 10 22  09 06 18.106   +21 32 23.56  .07787 1.0561 142.4 21.3 .854 149
2026 03 10 23  09 06 01.694   +21 36 37.80  .07792 1.0560 142.3 21.3 .890 148
2026 03 11 00  09 05 45.296   +21 40 51.58  .07797 1.0560 142.2 21.3 .926 148
2026 03 11 01  09 05 28.911   +21 45 04.89  .07802 1.0559 142.1 21.3 .963 148
2026 03 11 02  09 05 12.540   +21 49 17.72  .07807 1.0559 141.9 21.3 1.00 147
2026 03 11 03  09 04 56.182   +21 53 30.07  .07812 1.0558 141.8 21.4 1.04 147
2026 03 11 04  09 04 39.839   +21 57 41.95  .07817 1.0558 141.7 21.4 1.08 147
2026 03 11 05  09 04 23.509   +22 01 53.35  .07822 1.0557 141.6 21.4 1.12 147
2026 03 11 06  09 04 07.193   +22 06 04.28  .07827 1.0557 141.4 21.4 1.16 146
2026 03 11 07  09 03 50.891   +22 10 14.73  .07832 1.0556 141.3 21.4 1.20 146
2026 03 11 08  09 03 34.603   +22 14 24.69  .07837 1.0556 141.2 21.4 1.24 146
2026 03 11 09  09 03 18.329   +22 18 34.18  .07842 1.0555 141.1 21.4 1.28 146
2026 03 11 10  09 03 02.070   +22 22 43.19  .07847 1.0555 140.9 21.4 1.32 145
2026 03 11 11  09 02 45.824   +22 26 51.71  .07853 1.0554 140.8 21.4 1.36 145
2026 03 11 12  09 02 29.594   +22 30 59.75  .07858 1.0554 140.7 21.4 1.41 145
2026 03 11 13  09 02 13.377   +22 35 07.31  .07863 1.0553 140.6 21.4 1.45 145
2026 03 11 14  09 01 57.175   +22 39 14.38  .07868 1.0553 140.4 21.4 1.49 145
2026 03 11 15  09 01 40.988   +22 43 20.96  .07873 1.0552 140.3 21.4 1.54 145
2026 03 11 16  09 01 24.815   +22 47 27.06  .07879 1.0552 140.2 21.4 1.58 144
2026 03 11 17  09 01 08.658   +22 51 32.67  .07884 1.0551 140.0 21.4 1.63 144
2026 03 11 18  09 00 52.514   +22 55 37.80  .07889 1.0551 139.9 21.4 1.67 144
2026 03 11 19  09 00 36.386   +22 59 42.43  .07895 1.0550 139.8 21.4 1.72 144
2026 03 11 20  09 00 20.273   +23 03 46.58  .07900 1.0550 139.7 21.4 1.77 144
2026 03 11 21  09 00 04.175   +23 07 50.24  .07905 1.0549 139.6 21.4 1.81 144
2026 03 11 22  08 59 48.092   +23 11 53.40  .07911 1.0549 139.4 21.4 1.86 143
2026 03 11 23  08 59 32.024   +23 15 56.07  .07916 1.0548 139.3 21.4 1.91 143
2026 03 12 00  08 59 15.971   +23 19 58.26  .07922 1.0548 139.2 21.4 1.96 143
2026 03 12 01  08 58 59.934   +23 23 59.94  .07927 1.0547 139.1 21.5 2.01 143
2026 03 12 02  08 58 43.912   +23 28 01.14  .07933 1.0547 138.9 21.5 2.06 143
2026 03 12 03  08 58 27.905   +23 32 01.84  .07938 1.0546 138.8 21.5 2.11 143